PDT,Max TemperatureF,Mean TemperatureF,Min TemperatureF,Max Dew PointF,MeanDew PointF,Min DewpointF,Max Humidity, Mean Humidity, Min Humidity, Max Sea Level PressureIn, Mean Sea Level PressureIn, Min Sea Level PressureIn, Max VisibilityMiles, Mean VisibilityMiles, Min VisibilityMiles, Max Wind SpeedMPH, Mean Wind SpeedMPH, Max Gust SpeedMPH,PrecipitationIn, CloudCover, Events, WindDirDegrees
2014-5-1,83,67,51,48,43,39,77,50,22,30.09,30.02,29.98,8,7,7,16,6,24,0.00,0,,151
2014-5-2,58,54,49,55,51,47,100,84,67,30.06,30.01,29.94,7,4,1,15,6,25,0.10,7,Rain,214
2014-5-3,55,52,48,52,50,47,100,95,89,29.94,29.78,29.67,7,3,1,18,6,28,1.10,8,Rain,157
2014-5-4,57,52,47,53,49,46,100,93,86,29.83,29.71,29.64,9,4,1,13,6,17,0.69,8,Rain,136
2014-5-5,59,52,45,52,49,45,100,86,72,30.07,29.95,29.83,8,6,0,13,4,17,0.06,7,Fog-Rain,227
2014-5-6,57,49,40,46,43,40,100,80,59,30.07,30.05,30.04,7,5,0,14,5,19,0.00,2,Fog,261
2014-5-7,58,47,35,46,42,34,100,79,57,30.07,30.00,29.90,7,6,2,15,4,22,0.00,3,,218
2014-5-8,53,50,46,52,49,42,100,87,74,29.88,29.68,29.60,8,3,1,17,8,21,0.92,8,Rain,194
2014-5-9,55,48,40,48,45,41,100,83,66,30.01,29.86,29.72,8,6,1,17,6,22,0.29,7,Rain,231
2014-5-10,58,49,40,46,44,39,100,81,61,30.30,30.17,30.03,8,7,5,14,5,20,T,4,,264
2014-5-11,61,51,40,47,43,40,100,79,57,30.35,30.32,30.30,8,7,6,13,4,17,0.00,3,,312
2014-5-12,74,59,44,50,43,35,100,63,25,30.34,30.32,30.28,8,7,7,14,5,21,0.00,0,,11
2014-5-13,78,63,48,50,44,39,86,57,27,30.35,30.32,30.30,8,7,6,16,6,21,0.00,0,,4
2014-5-14,83,65,47,54,49,44,86,60,33,30.32,30.22,30.09,8,7,6,13,5,17,0.00,0,,347
2014-5-15,77,64,51,56,51,47,86,65,43,30.09,30.03,29.99,8,6,4,20,6,27,0.00,3,,170
2014-5-16,63,58,53,53,50,49,93,77,60,30.12,30.09,30.04,7,6,3,17,8,24,0.01,8,Rain,201
2014-5-17,63,56,48,52,50,48,100,82,64,30.09,30.00,29.89,8,6,2,14,4,16,T,8,Rain,222
2014-5-18,64,56,47,54,50,46,100,82,64,29.91,29.86,29.83,7,6,2,14,5,19,0.04,7,Rain,230
2014-5-19,65,56,47,52,49,47,100,78,56,30.11,29.99,29.91,7,4,0,14,5,18,0.00,6,Fog,13
2014-5-20,61,56,50,50,47,44,89,75,60,30.20,30.17,30.11,8,6,5,17,6,22,0.00,7,,323
2014-5-21,60,56,51,52,49,45,96,84,72,30.22,30.19,30.17,8,7,5,12,4,16,T,7,Rain,276
2014-5-22,66,57,48,58,54,48,100,84,67,30.16,30.08,30.03,8,7,6,12,4,14,T,3,,246
2014-5-23,60,56,52,57,54,51,100,90,80,30.17,30.06,29.98,7,4,0,13,5,19,0.27,8,Fog-Rain,241
2014-5-24,61,54,47,52,51,46,100,82,64,30.21,30.18,30.15,8,4,1,14,4,17,0.01,6,Rain,276
2014-5-25,57,52,47,54,51,47,100,93,86,30.15,30.03,29.98,8,5,2,10,2,14,0.16,8,Rain,186
2014-5-26,61,53,44,52,49,44,100,79,57,30.19,30.10,29.98,7,6,2,16,6,19,0.16,7,Rain,245
2014-5-27,62,52,41,49,45,42,100,78,55,30.18,30.16,30.14,7,6,6,15,5,21,T,3,Rain,346
2014-5-28,60,53,45,52,48,45,100,84,67,30.18,30.14,30.11,7,4,2,15,6,21,0.06,8,Rain,241
2014-5-29,60,51,42,51,48,43,100,81,62,30.24,30.21,30.18,6,4,1,12,5,15,0.04,7,Rain,257
2014-5-30,68,54,39,50,44,37,100,73,45,30.19,30.10,30.04,7,5,2,20,6,28,0.00,2,Rain,349
2014-5-31,61,54,46,53,50,45,100,86,72,30.12,30.10,30.06,6,5,3,14,4,20,0.00,7,,260